GFSFLT2_925_temp_114.txt.gz
Temp
20 19 20 22 22 22 22 22 22 22 22 22 21 21 21 21 20 20 20 19 19 20 20 20 20 19 19 19 19 19 22 21
21 19 19 20 20 22 22 22 22 22 21 21 21 21 20 20 20 19 20 19 19 20 19 19 19 19 19 19 18 19 21 21
19 19 19 20 21 20 21 21 21 21 21 21 20 20 19 19 19 19 19 19 19 19 19 19 19 19 19 18 18 20 21 21
19 19 18 18 21 21 20 20 19 19 20 19 20 21 20 21 20 19 19 19 19 19 19 18 18 18 17 17 19 21 21 21
19 19 18 18 21 19 21 21 21 20 20 20 20 20 20 20 20 19 18 18 18 18 17 18 19 20 20 19 20 20 21 21
21 20 19 18 19 18 19 20 19 19 20 20 21 20 20 20 21 21 20 19 20 19 19 19 19 20 20 20 20 20 21 20
23 21 20 20 18 19 18 19 21 19 19 18 20 19 19 20 21 21 21 20 20 20 20 19 18 19 19 19 19 20 20 20
23 22 20 20 20 19 19 19 21 19 18 18 18 19 19 18 20 21 21 20 20 20 19 19 19 19 19 19 19 20 19 19
22 22 22 20 20 20 19 20 20 19 17 18 18 18 19 18 18 20 21 21 19 19 19 19 19 19 19 18 19 19 19 19
22 21 21 21 20 20 20 20 20 20 18 19 19 18 18 18 18 18 20 20 18 19 18 18 19 18 18 18 18 18 18 18
21 20 20 21 20 20 20 20 20 21 20 20 20 18 18 19 18 17 17 18 17 18 19 18 19 18 18 18 18 17 18 18
18 19 19 20 20 20 21 20 20 21 21 21 21 19 19 19 20 18 17 17 17 17 18 18 19 18 18 19 18 18 18 18
16 16 17 18 20 21 21 21 20 21 21 21 21 20 19 19 19 18 17 16 16 17 17 17 17 18 17 17 17 17 17 18
13 14 14 15 18 20 21 22 20 20 21 21 20 19 19 19 19 17 16 16 16 16 16 16 16 16 16 17 17 17 17 17
11 11 12 13 14 16 20 21 21 20 20 20 19 19 19 18 18 17 16 16 16 16 16 16 16 15 17 19 19 19 21 19
8 9 10 11 12 14 17 22 22 21 20 18 18 19 18 18 17 16 16 16 16 16 16 16 16 15 15 17 20 21 19 19
6 7 8 9 10 12 15 18 22 22 21 20 19 17 17 17 16 16 16 16 16 16 16 16 16 16 15 16 18 18 18 18
5 5 6 6 7 10 13 16 19 22 22 21 20 17 16 16 16 16 16 16 16 16 16 16 15 16 15 18 18 18 18 17
3 3 3 4 5 7 9 13 17 21 22 22 21 18 16 16 16 16 16 16 16 16 15 15 15 15 16 17 18 18 18 18
2 1 1 2 4 6 7 11 17 20 21 22 21 18 17 16 16 16 16 16 16 16 15 15 15 15 16 16 17 17 18 18

GFSFLT2_925_temp_117.txt.gz
Temp
23 20 19 21 22 22 22 23 23 23 22 22 22 22 21 21 21 20 20 20 20 20 20 20 20 20 19 19 20 21 21 22
23 21 20 20 20 21 22 22 22 22 22 22 21 21 21 21 20 20 20 19 20 20 19 19 19 19 19 19 19 20 20 22
22 21 21 22 22 20 21 21 21 21 21 21 21 20 20 19 20 20 20 19 19 19 19 19 19 19 18 18 19 20 22 23
21 20 20 22 23 22 20 20 20 20 20 20 20 21 21 22 21 20 20 19 19 19 19 19 19 18 18 18 18 21 22 23
21 20 20 19 23 24 22 22 21 21 21 21 21 22 22 21 22 20 19 19 18 18 18 17 18 21 21 19 20 21 22 22
23 21 20 19 21 23 23 24 23 22 22 21 22 22 22 22 22 21 20 20 20 19 19 19 20 21 21 20 21 21 22 22
24 22 21 20 20 21 20 22 23 23 23 22 22 23 22 22 23 22 21 22 21 20 20 20 20 21 21 20 20 21 21 22
24 23 22 21 21 21 20 21 23 22 22 21 22 23 22 23 23 23 23 23 21 21 20 20 20 20 20 20 20 20 21 21
25 24 23 22 21 21 21 21 21 23 22 21 20 21 22 21 21 23 24 24 22 21 20 19 19 19 20 20 20 20 20 20
24 24 23 22 23 22 22 21 21 22 23 21 19 19 21 21 20 21 23 23 22 21 20 20 19 19 19 19 19 19 19 19
22 21 21 21 22 22 22 22 21 22 23 21 20 19 19 21 20 19 21 23 22 20 20 19 19 20 19 19 19 19 19 19
18 19 19 19 20 21 22 22 22 21 22 23 21 21 19 19 21 19 19 20 21 20 20 19 20 20 19 19 19 19 19 19
16 17 17 17 19 21 22 23 22 22 21 23 22 22 21 20 20 20 18 18 19 19 20 20 19 20 19 19 19 19 19 19
14 14 15 15 17 18 21 22 23 23 22 22 22 22 22 21 21 22 19 18 17 18 18 19 19 19 19 19 18 18 19 19
12 12 12 13 14 15 17 19 20 23 22 22 22 22 22 21 21 21 21 19 17 17 17 18 18 18 19 20 20 21 23 20
11 10 10 11 12 13 15 17 20 23 23 21 22 22 22 21 21 20 20 18 18 17 17 17 17 17 17 19 21 23 23 22
9 8 8 9 10 10 11 14 16 19 20 22 21 21 21 21 20 20 20 18 17 17 17 16 17 17 16 18 19 20 21 22
7 7 7 7 8 8 9 10 13 16 19 21 21 21 20 20 20 19 19 18 17 17 16 16 16 17 17 18 18 19 21 20
4 4 5 5 6 6 6 7 9 13 15 18 21 20 20 20 19 18 18 18 17 17 16 16 16 16 16 16 19 19 20 21
2 1 2 3 3 3 4 5 7 10 14 17 19 22 21 20 18 17 17 18 17 16 16 16 16 16 16 16 18 19 19 20

GFSFLT2_925_temp_123.txt.gz
Temp
23 24 23 23 23 23 22 22 22 22 22 22 22 22 22 21 21 20 20 20 20 19 20 20 20 20 20 20 19 19 19 19
23 23 23 23 23 22 22 22 22 22 22 22 22 21 21 21 21 20 20 20 20 20 20 20 20 20 20 20 19 19 19 19
22 23 22 22 21 22 22 22 22 22 22 22 21 21 21 21 21 20 20 20 20 20 20 20 19 19 20 20 19 20 20 20
22 22 22 22 21 21 22 22 21 22 22 21 20 21 21 21 21 20 20 20 19 19 19 19 19 19 19 19 20 20 19 21
23 22 22 22 21 21 21 21 21 21 21 21 20 20 20 20 20 20 20 19 19 19 19 19 19 19 19 19 21 20 19 20
23 22 22 22 22 20 21 21 21 21 20 21 20 19 19 20 20 20 20 20 19 19 19 19 19 19 19 20 20 21 20 20
24 23 22 22 21 21 20 21 21 21 21 20 21 20 20 20 20 20 20 20 19 19 19 19 19 20 19 19 20 21 20 20
19 19 19 20 21 21 21 21 20 20 21 21 20 21 21 21 21 21 20 20 20 19 19 19 19 20 20 19 19 20 20 20
16 16 16 17 18 19 20 21 21 21 21 21 21 21 21 21 21 21 21 21 21 20 19 19 19 20 20 20 20 20 20 20
15 15 15 15 15 16 18 18 19 20 21 21 21 21 21 21 21 22 21 21 21 20 20 19 19 20 20 20 20 20 20 20
13 13 13 14 14 15 16 17 18 19 20 21 21 21 21 21 21 22 22 21 21 21 20 20 19 20 20 21 20 20 20 20
12 12 12 12 12 13 14 14 15 16 17 20 21 21 21 21 21 21 22 21 21 20 20 20 20 20 20 20 20 20 19 19
10 10 10 10 10 10 10 10 12 13 15 16 19 21 20 21 21 21 21 22 21 20 20 20 19 20 19 19 19 20 19 19
7 7 7 7 8 8 9 9 10 11 13 15 18 19 20 21 20 20 20 21 20 20 19 18 19 19 18 18 16 18 18 19
5 5 5 5 5 6 7 8 9 10 11 12 14 15 18 20 20 20 20 19 19 19 19 19 18 17 20 19 16 16 16 17
3 3 3 3 3 3 4 5 7 8 8 9 10 12 14 17 19 20 20 19 18 19 19 19 19 18 18 20 21 20 16 15
1 1 2 1 1 2 2 3 5 6 7 7 8 9 12 15 17 19 19 20 19 18 19 18 18 19 18 18 19 19 20 15
0 0 0 0 0 1 1 1 2 4 5 5 6 7 9 11 14 17 19 18 20 20 18 18 19 19 18 19 18 19 17 16
-1 -1 -1 -1 -1 -1 -1 0 1 2 3 4 5 6 7 9 12 15 17 19 19 19 19 19 16 17 19 18 18 18 19 19
-1 -1 -1 -2 -2 -2 -2 -1 0 1 2 3 4 5 6 7 9 12 15 17 19 19 19 19 17 14 17 18 18 18 17 18

GFSFLT2_925_temp_129.txt.gz
Temp
24 23 23 22 22 23 23 23 23 22 22 22 22 22 22 22 21 21 21 21 21 20 20 20 20 20 19 19 19 19 19 19
23 22 22 21 22 22 22 22 22 22 22 21 21 22 21 21 21 21 21 21 21 20 20 20 20 20 20 19 19 19 20 19
22 22 22 22 22 21 21 21 21 21 20 20 21 20 21 20 20 20 20 20 20 20 20 20 19 20 20 20 19 19 19 19
20 20 20 20 20 21 21 20 19 19 20 20 19 19 19 20 20 20 20 20 20 20 19 19 19 19 20 19 19 19 19 20
18 18 18 18 18 18 18 19 20 19 19 19 19 19 18 19 19 19 18 19 19 19 19 18 19 19 19 20 19 19 19 20
16 17 17 18 18 18 18 18 17 18 18 18 18 18 18 18 19 19 18 18 18 19 19 19 18 18 19 19 20 20 19 19
14 15 16 16 17 17 17 17 17 17 17 18 18 18 18 18 18 18 19 18 18 18 18 18 18 18 18 19 19 19 20 19
11 13 13 14 15 16 16 16 17 17 17 16 17 17 18 19 18 18 18 17 18 18 18 17 18 18 18 19 19 19 19 19
9 10 11 12 12 13 14 15 16 16 16 16 15 16 16 17 18 18 20 17 18 18 18 18 17 18 18 18 19 19 19 19
7 8 9 10 10 11 12 12 13 15 16 16 16 17 16 16 17 17 18 19 18 18 18 18 17 17 18 18 18 19 18 19
4 5 6 8 9 9 10 11 12 12 12 14 15 15 15 14 15 17 16 16 17 19 17 17 17 16 17 17 18 18 19 18
2 2 2 3 5 8 8 7 9 10 10 11 11 13 12 13 15 14 15 15 16 16 18 18 17 17 17 16 17 18 18 18
1 1 1 1 1 2 4 4 3 5 6 7 9 9 10 10 12 14 15 15 15 16 17 17 17 17 16 16 16 17 17 18
-0 -0 -0 0 0 0 0 1 3 3 4 6 7 8 7 8 10 10 13 13 14 15 16 16 17 17 18 17 16 16 16 17
-1 -1 -1 -1 -1 -1 -0 0 1 2 3 2 3 4 6 6 7 9 10 13 14 14 14 16 16 17 17 18 16 17 17 17
-2 -1 -1 -1 -1 -1 -2 -2 -1 -1 -0 0 1 2 3 4 5 7 8 9 13 13 14 14 15 16 16 19 20 19 16 15
-1 -0 -1 -2 -2 -2 -2 -2 -2 -2 -2 -1 -0 1 2 3 4 5 6 8 10 12 14 14 14 15 16 17 18 17 17 14
-1 -1 -2 -2 -2 -2 -2 -2 -2 -1 -1 -1 -0 0 1 2 3 4 5 7 9 11 12 14 14 15 16 18 19 18 16 15
-2 -2 -2 -2 -2 -2 -2 -2 -1 -1 -1 -0 0 1 2 3 3 3 4 5 7 9 10 11 13 15 16 17 18 18 18 17
-3 -3 -3 -3 -3 -3 -2 -2 -1 -1 0 1 1 1 2 2 2 3 3 3 5 6 9 10 11 14 15 16 16 17 16 15

GFSFLT2_925_temp_132.txt.gz
Temp
21 21 21 21 21 21 22 22 21 21 21 21 21 21 21 21 21 20 20 20 20 20 20 20 20 19 19 19 19 19 19 19
20 20 20 20 20 20 21 21 21 20 20 20 20 20 20 20 20 20 20 20 20 20 20 20 20 19 19 19 19 19 19 19
19 19 19 19 19 19 19 19 20 19 19 19 19 19 19 19 19 20 20 20 20 20 20 20 20 19 19 19 19 19 19 19
17 18 18 17 18 18 19 19 18 18 19 18 18 18 18 19 19 19 20 19 19 19 19 19 19 19 19 18 18 19 19 19
15 15 16 16 17 17 18 19 18 18 17 18 18 18 17 18 18 19 19 19 19 18 18 18 19 19 19 18 18 18 19 19
12 13 14 14 15 16 16 17 17 17 17 17 17 17 17 17 18 18 18 18 18 18 18 18 18 19 19 19 18 18 19 19
9 11 12 12 14 14 15 15 16 15 16 17 17 16 17 17 17 17 18 18 18 17 17 17 17 18 18 19 19 18 18 19
8 9 10 11 11 12 12 13 14 14 15 15 16 16 16 17 17 17 17 18 17 17 17 17 17 17 18 18 19 19 18 19
6 7 9 10 10 11 11 12 12 13 13 13 14 14 15 16 16 17 17 17 17 18 17 17 17 16 17 18 18 19 19 19
5 6 7 8 9 10 10 10 10 12 13 12 12 13 13 13 14 15 16 15 17 17 17 17 16 16 17 17 18 18 18 19
3 3 4 6 7 7 8 8 8 9 10 10 11 11 11 11 12 15 14 14 14 15 17 17 16 16 16 17 19 18 18 18
1 1 2 2 3 5 7 6 6 6 6 8 9 8 9 9 10 12 13 14 15 17 15 16 16 16 16 16 18 19 19 18
-1 -1 -0 -0 -0 -0 1 2 2 3 3 4 5 7 7 8 9 10 12 12 12 14 14 15 15 16 16 16 16 17 16 19
-1 -1 -1 -1 -1 -1 -1 -1 1 1 2 2 2 3 4 5 6 7 10 10 11 13 14 15 15 15 16 17 17 16 15 16
-1 -1 -0 -1 -2 -2 -2 -2 -1 -1 -1 -0 1 0 2 4 5 5 7 8 9 11 13 14 15 15 15 16 16 17 16 16
-1 -1 -1 -2 -2 -2 -2 -1 -1 -1 -2 -1 -1 0 0 2 3 4 4 6 7 9 12 14 14 15 16 15 16 15 15 15
-2 -1 -2 -2 -2 -2 -2 -2 -2 -1 -1 -1 -0 0 -0 1 2 3 3 4 5 6 9 11 14 15 15 15 14 14 15 15
-3 -2 -2 -2 -3 -2 -2 -2 -1 -1 -1 -0 0 1 1 1 2 3 3 3 4 6 8 10 11 13 14 15 15 15 16 15
-4 -3 -3 -4 -4 -3 -3 -3 -2 -2 -1 -0 0 1 1 1 2 2 3 3 3 4 5 8 10 13 14 15 15 15 15 16
-4 -4 -4 -4 -4 -4 -4 -3 -3 -2 -1 -1 -0 0 1 2 2 2 3 3 3 3 4 5 8 8 11 14 15 15 15 15